This is the latest recevied weather packets stored in our database for station/object OE5OVL-13. If no packets are shown the sender has not sent any weather packets the latest 10 day(s).
| Time | Temp. | Humidity | Pressure | Rain* | Wind** | Luminosity | Snow |
|---|---|---|---|---|---|---|---|
| 1777836469 | 22.78° C | 34% | 732.1 hPa | 0 mm | - | - | - |
| 1777835557 | 23.33° C | 33% | 732.4 hPa | 0 mm | - | - | - |
| 1777834645 | 23.89° C | 33% | 733 hPa | 0 mm | - | - | - |
| 1777832822 | 25° C | 31% | 734.3 hPa | 0 mm | - | - | - |
| 1777831910 | 26.11° C | 30% | 735.4 hPa | 0 mm | - | - | - |
| 1777830998 | 26.67° C | 28% | 736.5 hPa | 0 mm | - | - | - |
| 1777830086 | 27.78° C | 27% | 737.8 hPa | 0 mm | - | - | - |
| 1777829175 | 30° C | 23% | 740.4 hPa | 0 mm | - | - | - |
| 1777828263 | 35.56° C | 18% | 746.5 hPa | 0 mm | - | - | - |
| 1777827351 | 37.22° C | 17% | 748.4 hPa | 0 mm | - | - | - |
| 1777826440 | 37.78° C | 17% | 749.3 hPa | 0 mm | - | - | - |
| 1777824616 | 38.89° C | 17% | 750.4 hPa | 0 mm | - | - | - |
| 1777823704 | 39.44° C | 16% | 751.4 hPa | 0 mm | - | - | - |
| 1777822793 | 39.44° C | 16% | 751.3 hPa | 0 mm | - | - | - |
| 1777821881 | 39.44° C | 16% | 751.5 hPa | 0 mm | - | - | - |
| 1777820969 | 38.89° C | 17% | 750.4 hPa | 0 mm | - | - | - |
| 1777820057 | 39.44° C | 16% | 751.1 hPa | 0 mm | - | - | - |
| 1777819146 | 38.89° C | 16% | 750.8 hPa | 0 mm | - | - | - |
| 1777817322 | 38.33° C | 16% | 749.7 hPa | 0 mm | - | - | - |
| 1777816410 | 37.22° C | 16% | 748.9 hPa | 0 mm | - | - | - |
| 1777815499 | 36.67° C | 18% | 747.9 hPa | 0 mm | - | - | - |
| 1777814587 | 35.56° C | 19% | 746.6 hPa | 0 mm | - | - | - |
| 1777813675 | 35° C | 20% | 746.2 hPa | 0 mm | - | - | - |
| 1777812763 | 33.89° C | 21% | 744.7 hPa | 0 mm | - | - | - |
| 1777810940 | 32.22° C | 26% | 742.9 hPa | 0 mm | - | - | - |
* Rain latest hour (hover to see other rain measurements)
** Current wind speed in m/s (hover to see current wind gust speed)